Regional Weather Roundup
Issued by NWS

Home | Current Version | Previous Version | Graphics & Text | Print | Product List | Glossary Off
Versions: 1 2 3 4 5 6 7 8 9 10 11 12 13 14 15 16 17 18 19 20 21 22 23 24 25 26 27 28 29 30 31 32 33 34 35 36 37 38 39 40 41 42 43 44 45 46 47 48 49 50

000
ASUS43 KMKX 021700
RWRWI

WISCONSIN REGIONAL WEATHER ROUNDUP
NATIONAL WEATHER SERVICE MILWAUKEE/SULLIVAN WI
1200 PM CDT THU JUL 02 2015

NOTE: "FAIR" INDICATES FEW OR NO CLOUDS BELOW 12,000 FEET WITH NO
SIGNIFICANT WEATHER AND/OR OBSTRUCTIONS TO VISIBILITY.

WIZ001-002-006>008-014>016-023>028-021800-
NORTHWEST WISCONSIN

CITY           SKY/WX    TMP DP  RH WIND       PRES   REMARKS
SUPERIOR ARPT  SUNNY     73  60  63 SW6       30.01S
ASHLAND        SUNNY     74  58  57 W7        30.02F
HAYWARD        SUNNY     71  52  50 SE3       30.05F
SIREN          NOT AVBL
CUMBERLAND     NOT AVBL
RICE LAKE      NOT AVBL
CHETEK         NOT AVBL
LADYSMITH      NOT AVBL
EAU CLAIRE     SUNNY     70  51  51 S5        30.04F
MENOMONIE      NOT AVBL
NEW RICHMOND   NOT AVBL
OSCEOLA        NOT AVBL
$$

WIZ003>005-009-010-017-018-021800-
NORTH CENTRAL WISCONSIN

CITY           SKY/WX    TMP DP  RH WIND       PRES   REMARKS
MANITOWISH WTR NOT AVBL
ARBOR VITAE    SUNNY     69  52  53 CALM      30.07R
WOODRUFF       SUNNY     69  52  53 CALM      30.07R
RHINELANDER    SUNNY     69  48  47 S7        30.08S
EAGLE RIVER    NOT AVBL
LAND O LAKES   SUNNY     71  45  39 S7        30.07S
PHILLIPS       NOT AVBL
TOMAHAWK       NOT AVBL
MEDFORD        NOT AVBL
MERRILL        NOT AVBL
$$

WIZ029-030-035-036-043>047-021800-
CENTRAL WISCONSIN

CITY           SKY/WX    TMP DP  RH WIND       PRES   REMARKS
WAUSAU         SUNNY     70  44  39 VRB5      30.06F
MOSINEE        SUNNY     66  45  45 CALM      30.08F
MARSHFIELD     SUNNY     69  49  48 SE6       30.07S
STEVENS POINT  NOT AVBL
WAUPACA        NOT AVBL
WAUTOMA        NOT AVBL
WISC RAPIDS    SUNNY     70  44  39 NE7       30.08S
CAMP DOUGLAS   NOT AVBL
$$

WIZ011>013-019>022-031-037>040-048>050-021800-
NORTHEAST WISCONSIN

CITY           SKY/WX    TMP DP  RH WIND       PRES   REMARKS
ANTIGO         SUNNY     67  47  49 S5        30.09R
SHAWANO        NOT AVBL
OCONTO         SUNNY     67  47  48 E7        30.07R
STURGEON BAY   SUNNY     64  46  52 E7        30.09S
GREEN BAY      SUNNY     70  51  51 NE8       30.07S
MANITOWOC      NOT AVBL
APPLETON       SUNNY     66  45  45 E6        30.08S
CLINTONVILLE   NOT AVBL
OSHKOSH        SUNNY     66  48  52 NE10      30.06S
$$

WIZ032>034-041-042-053>061-021800-
SOUTHWEST WISCONSIN

CITY           SKY/WX    TMP DP  RH WIND       PRES   REMARKS
LA CROSSE      MOSUNNY   70  52  52 CALM      30.05
SPARTA         NOT AVBL
VIROQUA        NOT AVBL
BOSCOBEL       MOSUNNY   69  52  54 VRB7      30.05F
PRAIRIE DU CHI NOT AVBL
PLATTEVILLE    NOT AVBL
$$

WIZ056-057-062-063-064-067-068-021800-
SOUTH CENTRAL WISCONSIN

CITY           SKY/WX    TMP DP  RH WIND       PRES   REMARKS
REEDSBURG      NOT AVBL
BARABOO/DELLS  NOT AVBL
LONE ROCK      NOT AVBL
MINERAL POINT  NOT AVBL
MADISON        SUNNY     65  46  50 E9        30.05F
MIDDLETON      NOT AVBL
WATERTOWN      NOT AVBL
MONROE         NOT AVBL
JANESVILLE     NOT AVBL
$$

WIZ051-052-058>065-066-070>072-021800-
SOUTHEAST WISCONSIN

CITY           SKY/WX    TMP DP  RH WIND       PRES   REMARKS
MILWAUKEE      MOSUNNY   61  50  67 NE10      30.06R
WAUKESHA       SUNNY     63  46  55 NE7       30.06S
MILWAUKEE/TIMM NOT AVBL
RACINE         SUNNY     63  51  65 NE9       30.07R
BURLINGTON     NOT AVBL
KENOSHA        SUNNY     65  52  62 NE9       30.05S
FOND DU LAC    SUNNY     68  48  48 E7        30.06S
SHEBOYGAN      SUNNY     64  48  56 NE10      30.06S
WEST BEND      NOT AVBL
JUNEAU         NOT AVBL
$$

LSZ147-162-021800-
LAKE SUPERIOR

STATION/POSITION TIME  TEMP    WIND        PRES    WAVE
                       AIR SEA DIR/SP/G            HT/PER
                 (UTC) (F)     (DEG/KT/KT) (MB)    (FT/S)
W MID LAKE BUOY  1550   45 39  180/  8/  8 1016.6F   0
DEVILS ISLAND    1600   62     230/  5/  7 1016.3F
SAXON HARBOR     1640   73     190/  8/  9 1016.3F
$$

LMZ867-665-643>646-021800-
LAKE MICHIGAN

STATION/POSITION TIME  TEMP    WIND        PRES    WAVE
                       AIR SEA DIR/SP/G            HT/PER
                 (UTC) (F)     (DEG/KT/KT) (MB)    (FT/S)
CHAMBERS ISLAND  1600   66      10/  3/  4 1018.6S
N MID LAKE BUOY  1550   51 46  340/  2/  2 1019.1R   0
NORTHPORT PIER   1600   60     340/  4/  4 1018.3F
SISTER BAY       1559   63     350/  7/  8   N/A
ALGOMA LAKESHORE 1610           80/  8/  9   N/A
KEWAUNEE LAKESHO 1600                      1017.5F
SHEBOYGAN LAKESH 1600   56      20/ 10/ 11 1018.5R
PORT WASHINGTON  1640   60      40/  8/ 10 1018.6S
ATWATER BUOY     1600   56      20/ 10/ 14 1019.1R
MILWAUKEE LAKESH 1600   55      30/ 12/ 14   N/A
KENOSHA   LAKESH 1600   57      20/ 11/ 12 1017.3S
$$

TC  - TEMPERATURE IN CELSIUS
VSB - VISIBILITY IN STATUTE MILES
WCI - WIND CHILL INDEX
HX  - HEAT INDEX




USA.gov is the U.S. government's official web portal to all federal, state and local government web resources and services.